Missoula, MT

6:34 PM MDT on April 20, 2018 (GMT -0600)
Missoula International

Weather History for KMSO - August, 2014

Change the Weather History Date:

Sunday, August 31, 2014

  Actual Average Record
Temperature  
Mean Temperature 61 °F 63 °F  
Max Temperature 71 °F 80 °F 94 °F (1991)
Min Temperature 50 °F 47 °F 36 °F (1993)
Degree Days  
Heating Degree Days 4 3  
Month to date heating degree days 36 47  
Since 1 June heating degree days 219 244  
Since 1 July heating degree days 42 84  
Cooling Degree Days 0 2  
Month to date cooling degree days 138 123  
Year to date cooling degree days 378 317  
Since 1 June cooling degree days 378 311  
Growing Degree Days 10 (Base 50)    
Moisture  
Dew Point 46 °F    
Average Humidity 63    
Maximum Humidity 93    
Minimum Humidity 33    
Precipitation  
Precipitation 0.03 in 0.04 in 1.11 in (1896)
Month to date precipitation 0.96 1.19  
Year to date precipitation 10.04 10.03  
Snow  
Snow 0.00 in - - ()
Month to date snowfall 0.0  
Year to date snowfall 51.9  
Since 1 July snowfall 0.0  
Snow Depth 0.00 in    
Sea Level Pressure  
Sea Level Pressure 29.94 in    
Wind  
Wind Speed 7 mph (WNW)    
Max Wind Speed 23 mph    
Max Gust Speed 27 mph    
Visibility 10 miles    
Events Rain    
T = Trace of Precipitation, MM = Missing Value Source: NWS Daily Summary

Daily Weather History Graph

Daily Weather History Graph

Search for Another Location

Airport or City:

Astronomy

Aug. 31, 2014 Rise Set
Actual Time 6:54 AM MDT 8:17 PM MDT
Civil Twilight 6:23 AM MDT 8:49 PM MDT
Nautical Twilight 5:44 AM MDT 9:27 PM MDT
Astronomical Twilight 5:03 AM MDT 10:07 PM MDT
Moon 1:08 PM MDT (8/31) 11:11 PM MDT (8/31)
Length of Visible Light 14h 26m
Length of Day
13h 22m
Waxing Crescent, 32% of the Moon is Illuminated
Aug 31
Waxing Crescent
Sep 2
First Quarter
Sep 8
Full
Sep 15
Last Quarter
Sep 24
New

Hourly Weather History & Observations

Time (MDT) Temp. Dew Point Humidity Pressure Visibility Wind Dir Wind Speed Gust Speed Precip Events Conditions
12:53 AM 59.0 °F 45.0 °F 60% 29.84 in 10.0 mi NNW 8.1 mph - N/A   Overcast
1:53 AM 57.0 °F 46.9 °F 69% 29.85 in 10.0 mi NW 3.5 mph - 0.00 in   Mostly Cloudy
2:53 AM 55.0 °F 48.0 °F 77% 29.86 in 10.0 mi WSW 4.6 mph - N/A   Overcast
3:53 AM 55.0 °F 48.9 °F 80% 29.87 in 10.0 mi NW 3.5 mph - N/A   Overcast
4:53 AM 54.0 °F 51.1 °F 90% 29.88 in 8.0 mi NNE 5.8 mph - 0.02 in Rain Light Rain
5:53 AM 53.1 °F 51.1 °F 93% 29.90 in 10.0 mi SW 5.8 mph - 0.00 in   Overcast
6:53 AM 53.1 °F 51.1 °F 93% 29.91 in 10.0 mi ESE 3.5 mph - N/A   Overcast
7:53 AM 55.0 °F 51.1 °F 86% 29.92 in 10.0 mi Calm Calm - N/A   Overcast
8:53 AM 54.0 °F 52.0 °F 93% 29.94 in 7.0 mi NNW 4.6 mph - 0.01 in Rain Light Rain
9:07 AM 54.0 °F 53.1 °F 97% 29.97 in 10.0 mi West 4.6 mph - 0.00 in   Overcast
9:53 AM 55.9 °F 52.0 °F 87% 29.95 in 10.0 mi Calm Calm - 0.00 in   Overcast
10:53 AM 57.0 °F 53.1 °F 87% 29.95 in 10.0 mi SE 4.6 mph - 0.00 in   Overcast
11:53 AM 61.0 °F 50.0 °F 67% 29.95 in 10.0 mi Calm Calm - 0.00 in Rain Light Rain
12:53 PM 63.0 °F 48.9 °F 60% 29.95 in 10.0 mi West 6.9 mph - 0.00 in   Mostly Cloudy
1:39 PM 66.9 °F 42.1 °F 40% 29.97 in 10.0 mi WNW 16.1 mph 26.5 mph N/A   Scattered Clouds
1:53 PM 64.9 °F 42.1 °F 43% 29.95 in 10.0 mi West 13.8 mph 23.0 mph N/A   Partly Cloudy
2:53 PM 66.0 °F 39.9 °F 38% 29.94 in 10.0 mi West 20.7 mph 25.3 mph N/A   Mostly Cloudy
3:53 PM 70.0 °F 39.9 °F 33% 29.92 in 10.0 mi WSW 17.3 mph 21.9 mph N/A   Mostly Cloudy
4:04 PM 69.1 °F 39.0 °F 33% 29.96 in 10.0 mi WSW 19.6 mph - N/A   Mostly Cloudy
4:53 PM 68.0 °F 39.9 °F 36% 29.93 in 10.0 mi NW 12.7 mph - N/A   Scattered Clouds
5:53 PM 64.9 °F 41.0 °F 42% 29.94 in 10.0 mi NNW 13.8 mph - N/A   Mostly Cloudy
6:53 PM 63.0 °F 43.0 °F 48% 29.95 in 10.0 mi NW 12.7 mph - N/A   Mostly Cloudy
7:53 PM 60.8 °F 41.0 °F 48% 29.99 in 10.0 mi NW 15.0 mph - N/A   Scattered Clouds
8:53 PM 59.0 °F 39.9 °F 49% 29.99 in 10.0 mi NNW 9.2 mph - N/A   Mostly Cloudy
9:53 PM 55.9 °F 41.0 °F 57% 29.99 in 10.0 mi NNW 5.8 mph - N/A   Partly Cloudy
10:53 PM 54.0 °F 42.1 °F 64% 30.00 in 10.0 mi NNW 6.9 mph - N/A   Clear
11:53 PM 50.0 °F 42.1 °F 74% 30.01 in 10.0 mi NNW 6.9 mph - N/A   Clear